TITAN 3C TRANSTAGE R/B, 2868

Orbit data source: Space-Track

TITAN 3C TRANSTAGE R/B, 2868 is space debris in GEO originally from a launch on Sat, 01 Jul 1967 UTC launched from the Air Force Eastern Test Range (AFETR). Debris objects in space refer to the collection of defunct objects orbiting the Earth. Examples of debris include non-operational satellites, rocket bodies, and fragments generated from explosions, collisions, or faulty payload assembly.

Loading next visibility...
Identifier
2868, 1967-066G
Orbit
GEO
Country
Flag of USUS
Related business
Manufacturer
Martin Marietta
Mission
Spacecraft
Bus & Motor
TRANSTAGE, Unknown motor
Mass
2,176 kg wet, 2,050 kg dry
Launch date (UTC)
1967-07-01 (59 years ago)
Launch vehicle
Unknown
Launch site
Air Force Eastern Test Range (AFETR)
Object type
Payload
Rocket body
Debris
Shape & HBR
Unknown
Radar Cross Section
Large (>1 m²)

Expand to show TLE details & history
Last TLE update: 5 hours ago

TLE from 5 hours ago
0 TITAN 3C TRANSTAGE R/B
1 02868U 67066G   26037.31532213 -.00000100  00000-0  00000-0 0  9999
2 02868   2.0531 102.3293 0084438 169.1439 211.0563  1.08908033126916
Epoch: 2026-02-06T07:34Z
TLE epoch observation values (Epoch: 2026-02-06T07:34:03.832Z)
Latitude
0.69842°
Longitude
-127.91781°
Altitude
33,816.146 km
Speed
3.138 km/s
True Right ascension
08h 08m 12s
True Declination
0° 41' 52"
Sunlit
Object was in daylight at epoch
Visualization orbit readout
Latitude
Unknown
Longitude
Unknown
Altitude
Unknown
Speed
Unknown
Apparent Right ascension
Unknown
Apparent Declination
Unknown
Sunlit
N/A
Visualization observer readout
Local Sidereal Time
14:32:06
Azimuth
Unknown
Elevation
Unknown
Doppler factor
Unknown
Orbital elements
Apogee altitude
33,865.064 km
Perigee altitude
33,191.144 km
Semi-major axis
39,906.241 km
Eccentricity
0.00844
Inclination
2.0531°
RAAN
102.3293°
Arg. of periapsis
169.1439°
True anomaly
210.56162°
Mean anomaly
211.0563°
Eccentric anomaly
210.80851°
Mean motion
0.27226 °/min
Orbital period
1,322.27 mins
BSTAR
0
Loading maneuver chart data...
Computing Atmospheric mass density...
Loading historical data...
Loading historical data...
Loading historical data...
Loading historical data...
Loading historical data...
Loading historical data...
Loading historical data...

Documentation

Showing up to 5 results
|